Regional Weather Roundup
Issued by NWS

Home | Current Version | Previous Version | Text Only | Print | Product List | Glossary Off
Versions: 1 2 3 4 5 6 7 8 9 10 11 12 13 14 15 16 17 18 19 20 21 22 23 24 25 26 27 28 29 30 31 32 33 34 35 36 37 38 39 40 41 42 43 44 45 46 47 48 49 50

000
ASUS45 KTFX 192204
RWRMT
MONTANA HOURLY WEATHER ROUNDUP
NATIONAL WEATHER SERVICE GREAT FALLS MT
404 PM MDT TUE AUG 19 2014

NOTE: "FAIR" INDICATES FEW OR NO CLOUDS BELOW 12000 FEET WITH NO
SIGNIFICANT WEATHER AND/OR OBSTRUCTIONS TO VISIBILITY.

* THESE STATIONS ARE NOT UNDER NWS QUALITY CONTROL. THEY DO NOT
   REPORT WEATHER SUCH AS PRECIPITATION OR FOG.

MTZ001>007-043-192300-
WEST OF THE DIVIDE
CITY           SKY/WX    TMP DP  RH WIND       PRES   REMARKS
KALISPELL      HVY RAIN  63  55  75 N25G43    29.78R VSB 1/2
MISSOULA       SUNNY     90  30  12 W13       29.73F
BUTTE          PTSUNNY   79  36  21 N/A       29.87F
MULLAN PASS    PTSUNNY   61  54  78 NW7       29.93F
* ESSEX        N/A       79  47  32 SE6        N/A
* LINCOLN      N/A       82  41  23 W7G15      N/A
* LOOKOUT PASS N/A       67  52  59 NE7        N/A
* POLSON       N/A       82  43  25 SW3G10     N/A
* RONAN APT    PTCLDY    88  46  23 SW6        N/A
* SEELEY LAKE  N/A       84  40  21 NW7G17     N/A
* THOMP F APT  CLOUDY    74  41  31 SW10G22    N/A
* YAAK HILL    N/A       83  47  28 VRB3G12    N/A
$$

MTZ008-052>055-192300-
SOUTHWEST MONTANA
CITY           SKY/WX    TMP DP  RH WIND       PRES   REMARKS
BOZEMAN        CLOUDY    79  45  30 N9G16     29.79F
DILLON         CLOUDY    81  43  26 NE15      29.82F
W YELLOWSTONE  RAIN      57  48  72 N8G20     30.05R
* THREE FORKS  CLOUDY    82  54  38 W20G31     N/A
* BOULDER HILL N/A       79  38  23 S11G20     N/A
* MONIDA PASS  N/A       66  38  36 E9         N/A
* RAYNOLDS PAS N/A       67  13  12 N17G29     N/A
* WHITEHALL    N/A       78  53  42 N6G31      N/A
* WISE RIVER   N/A       79  38  23 NW13G18    N/A
$$

MTZ009>010-012-014-046-048-049-054-192300-
EAST SLOPES AND CENTRAL MONTANA
CITY           SKY/WX    TMP DP  RH WIND       PRES   REMARKS
CUT BANK       PTCLDY    79  52  39 N15       29.74F
GREAT FALLS    PTCLDY    86  36  17 W13G18    29.71F
HELENA         PTSUNNY   90  39  17 W12       29.73F
MALMSTROM AFB  PTCLDY    86  36  17 W9G20     29.71F
* CONRAD       PTCLDY    88  45  22 W10G18     N/A
* DEARBORN     N/A       85  42  22 SW4G16     N/A
* EAST GLACIER N/A       77  46  33 W13G23     N/A
* MONARCH      N/A       79  34  20 W16G23     N/A
* PENDROY      N/A       84  41  22 W7G14      N/A
* ROGERS PASS  N/A       77  35  22 SE5G27     N/A
* SAINT MARY   N/A       78  43  29 SW7G14     N/A
* SWEET GRASS  N/A       74  53  48 W15        N/A
$$

MTZ011-013-016-021-035-040-045-047-050-051-192300-
NORTH CENTRAL MONTANA
CITY           SKY/WX    TMP DP  RH WIND       PRES   REMARKS
HAVRE          PTCLDY    91  43  19 W15G24    29.63F
LEWISTOWN      PTCLDY    90  36  15 N12       29.75F
* CHESTER      N/A       84  43  24 W10G16     N/A
* DENTON       N/A       89  41  19 W14G23     N/A
* GEYSER       N/A       86  39  19 W14G21     N/A
* JUDITH GAP   N/A       86  39  19 SW14G24    N/A
* LOMA         N/A       89  40  18 W11G17     N/A
$$

MTZ017>020-022>027-061-062-192300-
NORTHEAST MONTANA
CITY           SKY/WX    TMP DP  RH WIND       PRES   REMARKS
GLASGOW        PTCLDY    91  50  25 VRB6      29.61F
GLENDIVE       SUNNY     91  50  25 W5        29.68F
JORDAN         PTCLDY    91  45  20 W7        29.66F
SIDNEY         SUNNY     90  61  38 S12       29.67F
WOLF POINT     PTCLDY    97  46  17 VRB5      29.60F
* BEAVER HILL  N/A       88  58  36 SE12       N/A
* CIRCLE       N/A       94  48  21 W8G13      N/A
* SACO         N/A       92  44  19 SW7G12     N/A
$$

MTZ028>042-056>058-192300-
SOUTHCENTRAL AND SOUTHEAST MONTANA
CITY           SKY/WX    TMP DP  RH WIND       PRES   REMARKS
BAKER          PTSUNNY   90  43  19 CALM      29.72F
BILLINGS       CLOUDY    91  36  14 W8        29.72F
LIVINGSTON     CLOUDY    82  36  19 SW18G28   29.80R
MILES CITY     PTCLDY    97  39  13 SW7G20    29.66F
* LAUREL APT   CLOUDY    90  37  15 SW7        N/A
* ROUNDUP APT  PTSUNNY   90  37  15 SW11G17    N/A
* HYSHAM       N/A       92  41  17 S3G12      N/A
* LAME DEER    N/A       88  38  17 S8G13      N/A
* REED POINT   N/A       82  42  24 E8G19      N/A
* ROSCOE HILL  N/A       74  37  26 W6G17      N/A
$$

REGIONAL REPORTS...DAKOTAS
CITY           SKY/WX    TMP DP  RH WIND       PRES   REMARKS
WILLISTON      SUNNY     91  54  28 SE10      29.68F
DICKINSON      SUNNY     86  59  40 S13       29.72F HI  85
BEACH          N/A       84  59  43 S12G17    29.72F HI  84
CROSBY         SUNNY     86  55  35 SE9       29.70S
TIOGA          SUNNY     86  55  35 S14       29.75F
WATFORD CITY   HAZE      90  55  31 SE9       29.68F
BISMARCK       SUNNY     88  59  38 S8        29.74F
GRAND FORKS    PTCLDY    82  63  53 CALM      29.73S HI  83
FARGO          PTCLDY    81  63  54 VRB3      29.74S HI  82
BUFFALO SD     PTCLDY    90  52  27 SE18G24   29.69F
RAPID CITY     PTCLDY    82  63  53 SW3       29.77F HI  83
$$

REGIONAL REPORTS...WYOMING/IDAHO/WASHINGTON
CITY           SKY/WX    TMP DP  RH WIND       PRES   REMARKS
GILLETTE       PTCLDY    90  36  15 NW9       29.79F
SHERIDAN       PTSUNNY   91  34  13 CALM      29.75F
CODY           CLOUDY    79  43  28 S25G32    29.86F
YELLOWSTONE LA CLOUDY    68  36  31 VRB6      30.10S
SALMON         CLOUDY    68  54  61 SE3       29.84F
MULLAN PASS    PTSUNNY   61  54  78 NW7       29.93S
SAND POINT     CLOUDY    82  52  35 W6        29.72F
SPOKANE        PTSUNNY   88  46  23 SW9       29.71F

$$




USA.gov is the U.S. government's official web portal to all federal, state and local government web resources and services.